TimePST,TemperatureF,Dew PointF,Humidity,Sea Level PressureIn,VisibilityMPH,Wind Direction,Wind SpeedMPH,Gust SpeedMPH,PrecipitationIn,Events,Conditions,WindDirDegrees,DateUTC
12:50 AM,41.0,28.4,61,29.96,10.0,ESE,24.2,31.1,N/A,,Overcast,110,2012-12-04 08:50:00
12:53 AM,41.0,28.0,60,29.98,10.0,ESE,21.9,31.1,N/A,,Overcast,110,2012-12-04 08:53:00
1:53 AM,39.9,30.9,70,30.04,10.0,SSE,21.9,33.4,0.00,Rain,Light Rain,150,2012-12-04 09:53:00
2:53 AM,36.0,33.1,89,30.03,10.0,East,18.4,24.2,0.05,Rain,Light Rain,100,2012-12-04 10:53:00
3:09 AM,35.6,33.8,93,30.00,10.0,East,17.3,-,0.01,Rain,Light Rain,90,2012-12-04 11:09:00
3:53 AM,36.0,34.0,93,30.03,10.0,East,15.0,24.2,0.01,,Overcast,90,2012-12-04 11:53:00
4:53 AM,36.0,34.0,93,30.04,10.0,East,15.0,-,0.00,,Overcast,90,2012-12-04 12:53:00
5:11 AM,37.4,33.8,87,29.98,10.0,East,18.4,-,0.00,Rain,Light Rain,100,2012-12-04 13:11:00
5:18 AM,37.4,33.8,87,29.98,10.0,East,13.8,-,0.00,Rain,Light Rain,100,2012-12-04 13:18:00
5:53 AM,37.0,35.1,93,30.04,10.0,East,15.0,24.2,0.01,,Overcast,100,2012-12-04 13:53:00
6:07 AM,37.4,35.6,93,30.00,9.0,East,12.7,-,0.00,Rain,Light Rain,90,2012-12-04 14:07:00
6:53 AM,37.9,36.0,93,30.06,10.0,East,18.4,23.0,0.02,Rain,Light Rain,80,2012-12-04 14:53:00
7:53 AM,39.0,36.0,89,30.06,10.0,East,19.6,25.3,0.04,Rain,Light Rain,100,2012-12-04 15:53:00
8:24 AM,39.2,37.4,93,30.03,9.0,East,18.4,-,0.01,Rain,Light Rain,100,2012-12-04 16:24:00
8:53 AM,39.9,37.0,89,30.07,10.0,East,18.4,-,0.02,Rain,Light Rain,100,2012-12-04 16:53:00
9:03 AM,39.2,37.4,93,30.02,10.0,East,18.4,26.5,0.01,Rain,Light Rain,100,2012-12-04 17:03:00
9:53 AM,39.9,37.9,93,30.07,10.0,East,17.3,26.5,0.01,,Overcast,100,2012-12-04 17:53:00
10:03 AM,41.0,37.4,87,30.03,10.0,East,17.3,25.3,N/A,,Overcast,100,2012-12-04 18:03:00
10:11 AM,41.0,37.4,87,30.03,10.0,East,20.7,-,0.00,Rain,Light Rain,100,2012-12-04 18:11:00
10:53 AM,41.0,37.9,89,30.06,10.0,East,16.1,23.0,0.00,Rain,Light Rain,90,2012-12-04 18:53:00
11:53 AM,42.1,39.0,89,30.04,10.0,East,12.7,-,0.00,,Overcast,90,2012-12-04 19:53:00
12:03 PM,42.8,39.2,87,30.00,10.0,East,12.7,-,0.00,Rain,Light Rain,100,2012-12-04 20:03:00
12:53 PM,43.0,39.0,86,30.02,10.0,East,15.0,-,0.00,,Overcast,80,2012-12-04 20:53:00
1:53 PM,43.0,39.0,86,30.00,10.0,East,17.3,25.3,0.00,,Scattered Clouds,80,2012-12-04 21:53:00
2:53 PM,43.0,39.0,86,30.00,10.0,East,15.0,-,N/A,,Overcast,80,2012-12-04 22:53:00
3:53 PM,43.0,39.0,86,30.00,10.0,East,16.1,-,0.00,Rain,Light Rain,80,2012-12-04 23:53:00
4:53 PM,42.1,39.0,89,30.00,10.0,ENE,13.8,-,0.01,,Mostly Cloudy,70,2012-12-05 00:53:00
5:53 PM,42.1,39.0,89,29.98,10.0,East,18.4,-,N/A,,Mostly Cloudy,100,2012-12-05 01:53:00
6:53 PM,42.1,39.0,89,29.98,10.0,East,12.7,-,N/A,,Mostly Cloudy,100,2012-12-05 02:53:00
7:53 PM,43.0,39.9,89,29.97,10.0,East,13.8,-,0.00,Rain,Light Rain,90,2012-12-05 03:53:00
8:53 PM,44.1,41.0,89,29.96,10.0,ESE,15.0,-,0.00,Rain,Light Rain,110,2012-12-05 04:53:00
9:53 PM,46.0,41.0,83,29.95,10.0,SE,18.4,-,0.00,,Overcast,130,2012-12-05 05:53:00
10:53 PM,46.9,41.0,80,29.92,10.0,ESE,15.0,-,0.00,,Overcast,120,2012-12-05 06:53:00
11:53 PM,46.9,41.0,80,29.92,10.0,SE,13.8,-,N/A,,Overcast,130,2012-12-05 07:53:00